Date String (YYYY-MM-DD hh:mm:ss) UTC,Instrument flags,Ambient pressure (hPa),Sample flow (lpm),Bypass flow (lpm),Sample temperature (°C),Ambient temperature (°C),ASC tube jacket temperature (°C),LED temperature (°C),Box temperature (°C),Sample RH (%),Span deviation,Mass concentration (μg/m³),Mass concentration (μg/m³),Mass concentration (μg/m³)
DateTimeUTC,F1_M11,P_M11,Q1_M11,Q2_M11,T1_M11,T2_M11,T3_M11,T4_M11,T5_M11,U1_M11,ZSPAN_M11,X0_M11,X2_M11,X1_M11
2021-08-22 05:00:00,,0824.8,4.99,0.00,29.5,28.8,00.0,38.6,31.3,29.1,0002.4,0012.62,0008.19,0007.53
2021-08-22 05:01:00,,0824.8,5.00,0.00,29.5,28.8,00.0,38.6,31.3,29.1,0002.2,0012.98,0008.25,0007.54
2021-08-22 05:02:00,,0824.8,5.01,0.00,29.5,28.8,00.0,38.6,31.3,29.2,0002.2,0013.17,0008.26,0007.52
2021-08-22 05:03:00,,0824.9,4.99,0.00,29.5,28.8,00.0,38.6,31.2,29.2,0002.2,0013.15,0008.25,0007.50
2021-08-22 05:04:00,,0824.8,5.00,0.00,29.5,28.8,00.0,38.6,31.3,29.2,0001.9,0013.14,0008.23,0007.49
2021-08-22 05:05:00,,0824.8,5.00,0.00,29.5,28.8,00.0,38.7,31.3,29.0,0001.9,0013.22,0008.24,0007.48
2021-08-22 05:06:00,,0824.8,5.02,0.00,29.5,28.8,00.0,38.7,31.3,29.2,0001.7,0013.50,0008.26,0007.48
2021-08-22 05:07:00,,0824.9,4.98,0.00,29.5,28.8,00.0,38.7,31.3,29.3,0001.6,0014.10,0008.27,0007.48
2021-08-22 05:08:00,,0824.9,5.01,0.00,29.5,28.8,00.0,38.7,31.3,29.5,0001.6,0014.37,0008.23,0007.46
2021-08-22 05:09:00,,0824.9,4.98,0.00,29.5,28.8,00.0,38.7,31.3,29.4,0001.5,0014.41,0008.24,0007.46
2021-08-22 05:10:00,,0824.9,5.02,0.00,29.5,28.8,00.0,38.7,31.3,29.3,0001.6,0014.67,0008.25,0007.48
2021-08-22 05:11:00,,0824.9,5.00,0.00,29.5,28.9,00.0,38.7,31.3,29.3,0001.6,0014.76,0008.24,0007.49
2021-08-22 05:12:00,,0824.8,5.00,0.00,29.5,28.9,00.0,38.7,31.3,29.1,0001.7,0014.45,0008.22,0007.50
2021-08-22 05:13:00,,0824.9,5.01,0.00,29.5,28.9,00.0,38.7,31.3,28.9,0002.0,0014.19,0008.22,0007.51
2021-08-22 05:14:00,,0824.9,4.99,0.00,29.5,28.9,00.0,38.7,31.3,28.7,0002.0,0014.09,0008.21,0007.53
2021-08-22 05:15:00,,0824.9,5.00,0.00,29.6,28.9,00.0,38.7,31.3,28.5,0002.0,0014.22,0008.27,0007.56
2021-08-22 05:16:00,,0824.9,5.00,0.00,29.5,28.9,00.0,38.7,31.3,28.5,0001.9,0014.19,0008.29,0007.58
2021-08-22 05:17:00,,0824.9,4.98,0.00,29.6,28.9,00.0,38.7,31.3,28.4,0002.0,0014.11,0008.33,0007.64
2021-08-22 05:18:00,,0824.9,4.99,0.00,29.6,28.9,00.0,38.7,31.3,28.4,0002.1,0013.94,0008.39,0007.69
2021-08-22 05:19:00,,0824.9,5.01,0.00,29.6,28.9,00.0,38.7,31.3,28.5,0002.3,0013.21,0008.42,0007.74
2021-08-22 05:20:00,,0824.9,5.00,0.00,29.6,28.9,00.0,38.7,31.3,28.3,0002.5,0013.64,0008.48,0007.78
2021-08-22 05:21:00,,0824.8,4.99,0.00,29.6,28.9,00.0,38.7,31.4,28.4,0002.6,0014.27,0008.55,0007.83
2021-08-22 05:22:00,,0824.8,5.00,0.00,29.6,28.9,00.0,38.7,31.3,28.4,0002.4,0014.18,0008.59,0007.85
2021-08-22 05:23:00,,0824.7,5.00,0.00,29.6,28.9,00.0,38.7,31.3,28.3,0002.2,0014.34,0008.59,0007.86
2021-08-22 05:24:00,,0824.7,5.00,0.00,29.5,28.8,00.0,38.7,31.3,28.3,0002.1,0014.38,0008.60,0007.88
2021-08-22 05:25:00,,0824.7,5.00,0.00,29.5,28.8,00.0,38.7,31.3,28.5,0001.8,0014.36,0008.61,0007.90
2021-08-22 05:26:00,,0824.6,5.00,0.00,29.5,28.8,00.0,38.7,31.3,28.6,0001.9,0014.18,0008.56,0007.91
2021-08-22 05:27:00,,0824.7,5.00,0.00,29.5,28.8,00.0,38.7,31.3,28.4,0002.1,0014.33,0008.58,0007.93
2021-08-22 05:28:00,,0824.8,5.00,0.00,29.5,28.8,00.0,38.7,31.3,28.4,0002.3,0014.52,0008.56,0007.92
2021-08-22 05:29:00,,0824.7,5.01,0.00,29.5,28.8,00.0,38.7,31.3,28.4,0002.2,0013.79,0008.51,0007.90
2021-08-22 05:30:00,,0824.6,5.00,0.00,29.5,28.8,00.0,38.7,31.3,28.5,0002.2,0013.84,0008.50,0007.89
2021-08-22 05:31:00,,0824.6,5.02,0.00,29.5,28.8,00.0,38.7,31.3,28.4,0001.7,0013.76,0008.52,0007.90
2021-08-22 05:32:00,,0824.6,4.99,0.00,29.5,28.8,00.0,38.7,31.3,28.5,0001.4,0013.08,0008.52,0007.88
2021-08-22 05:33:00,,0824.6,5.00,0.00,29.5,28.8,00.0,38.7,31.3,28.4,0001.4,0012.91,0008.46,0007.86
2021-08-22 05:34:00,,0824.6,5.00,0.00,29.5,28.8,00.0,38.7,31.3,28.4,0001.4,0012.80,0008.49,0007.87
2021-08-22 05:35:00,,0824.7,4.99,0.00,29.5,28.8,00.0,38.7,31.3,28.4,0001.4,0012.89,0008.51,0007.87
2021-08-22 05:36:00,,0824.7,5.01,0.00,29.5,28.8,00.0,38.7,31.3,28.5,0001.6,0012.86,0008.51,0007.87
2021-08-22 05:37:00,,0824.7,5.01,0.00,29.5,28.8,00.0,38.7,31.3,28.6,0001.6,0012.99,0008.56,0007.87
2021-08-22 05:38:00,,0824.6,4.98,0.00,29.5,28.8,00.0,38.7,31.3,28.5,0001.4,0013.01,0008.58,0007.87
2021-08-22 05:39:00,,0824.6,4.99,0.00,29.5,28.8,00.0,38.7,31.3,28.5,0001.4,0012.69,0008.55,0007.85
2021-08-22 05:40:00,,0824.6,5.01,0.00,29.5,28.8,00.0,38.7,31.3,28.4,0001.4,0012.84,0008.62,0007.86
2021-08-22 05:41:00,,0824.8,5.00,0.00,29.5,28.8,00.0,38.7,31.3,28.4,0001.2,0012.89,0008.68,0007.90
2021-08-22 05:42:00,,0824.6,5.00,0.00,29.5,28.8,00.0,38.7,31.3,28.4,0001.4,0013.20,0008.69,0007.91
2021-08-22 05:43:00,,0824.8,5.00,0.00,29.5,28.8,00.0,38.7,31.2,28.6,0001.7,0013.17,0008.68,0007.95
2021-08-22 05:44:00,,0824.5,4.99,0.00,29.5,28.8,00.0,38.7,31.3,28.6,0002.0,0013.25,0008.76,0008.02
2021-08-22 05:45:00,,0824.4,5.02,0.00,29.5,28.8,00.0,38.7,31.2,28.7,0002.3,0013.27,0008.80,0008.07
2021-08-22 05:46:00,,0824.5,4.99,0.00,29.5,28.8,00.0,38.7,31.2,28.7,0002.5,0013.22,0008.81,0008.09
2021-08-22 05:47:00,,0824.5,5.00,0.00,29.5,28.8,00.0,38.7,31.2,28.7,0002.7,0013.46,0008.92,0008.16
2021-08-22 05:48:00,,0824.5,4.99,0.00,29.5,28.8,00.0,38.7,31.2,28.7,0002.7,0013.61,0009.02,0008.22
2021-08-22 05:49:00,,0824.4,5.02,0.00,29.5,28.8,00.0,38.7,31.2,28.8,0002.6,0013.53,0009.05,0008.27
2021-08-22 05:50:00,,0824.4,5.00,0.00,29.5,28.7,00.0,38.7,31.2,28.7,0002.7,0013.65,0009.12,0008.34
2021-08-22 05:51:00,,0824.5,4.99,0.00,29.5,28.7,00.0,38.7,31.2,28.8,0002.7,0013.56,0009.11,0008.39
2021-08-22 05:52:00,,0824.4,5.00,0.00,29.5,28.7,00.0,38.7,31.2,28.9,0002.7,0013.64,0009.14,0008.42
2021-08-22 05:53:00,,0824.4,5.00,0.00,29.5,28.7,00.0,38.7,31.2,28.8,0002.8,0013.85,0009.22,0008.47
2021-08-22 05:54:00,,0824.4,5.00,0.00,29.5,28.7,00.0,38.7,31.2,29.0,0002.5,0014.20,0009.27,0008.51
2021-08-22 05:55:00,,0824.4,5.01,0.00,29.5,28.7,00.0,38.7,31.2,29.1,0002.5,0014.53,0009.29,0008.51
2021-08-22 05:56:00,,0824.4,5.00,0.00,29.4,28.7,00.0,38.7,31.2,29.1,0002.5,0014.57,0009.32,0008.54
2021-08-22 05:57:00,,0824.4,4.99,0.00,29.4,28.7,00.0,38.7,31.2,29.1,0002.5,0014.62,0009.38,0008.58
2021-08-22 05:58:00,,0824.4,5.01,0.00,29.5,28.7,00.0,38.7,31.2,29.2,0002.3,0014.80,0009.40,0008.61
2021-08-22 05:59:00,,0824.5,4.99,0.00,29.4,28.7,00.0,38.7,31.2,29.2,0002.3,0014.72,0009.35,0008.62
